Wind_Speed
15 14 15 18 20 22 26 30 34 37 41 46 49 51 54 57 60 63 66 69 71 73 74 76 77 76 75 73 72 72 72 73 74 75 77 78 78 78 77 75 73 71 68 65
16 16 17 20 21 25 30 35 39 42 45 49 53 56 59 62 65 68 71 73 75 75 74 71 67 62 57 55 53 51 51 51 53 56 60 65 71 76 78 80 80 78 75 72
18 18 20 24 27 31 35 39 44 46 49 52 55 59 62 65 68 72 73 73 69 62 55 49 46 44 43 43 42 42 41 41 41 41 42 43 47 53 60 67 73 77 79 78
21 22 23 27 29 34 38 42 46 48 51 55 58 62 65 68 71 71 67 59 51 46 43 43 43 43 44 44 44 44 43 42 42 41 40 39 39 40 43 48 54 62 69 74
23 23 29 32 34 38 42 45 50 52 56 59 63 66 67 67 65 59 52 47 45 45 45 45 45 46 47 48 47 47 46 46 45 43 42 41 39 37 37 38 40 45 51 59
26 29 32 35 40 43 47 49 54 57 60 63 66 69 66 60 54 49 47 47 48 48 48 48 49 50 51 50 50 49 48 47 45 45 44 43 41 40 39 39 37 36 39 44
29 31 37 39 43 45 48 52 54 57 61 65 68 66 61 54 49 47 48 49 50 50 51 52 53 53 53 52 51 50 49 48 46 45 43 42 40 39 38 37 36 34 33 35
32 35 39 42 45 48 52 55 58 61 65 67 65 59 54 50 49 49 50 50 51 52 53 54 54 54 53 52 50 49 48 46 45 43 42 41 39 37 36 35 33 31 31 30
34 36 40 44 48 51 55 58 60 64 66 67 62 55 50 49 49 50 51 52 54 55 55 55 55 54 53 51 50 48 47 44 42 41 40 39 37 35 33 32 31 30 28 27
35 39 42 47 50 53 56 59 62 65 67 64 57 52 50 48 49 50 52 54 55 56 56 55 54 53 52 51 49 46 43 41 41 40 38 36 33 32 31 30 29 28 27 26
39 42 44 47 50 54 56 59 63 65 65 60 54 51 49 49 50 52 55 56 57 57 57 56 54 52 50 47 44 42 40 37 37 35 33 31 29 29 28 27 26 25 24 24
41 44 46 48 52 55 57 60 63 65 63 56 51 49 48 50 52 55 57 58 58 57 56 55 52 48 45 41 38 36 34 33 31 30 28 27 26 24 24 23 22 21 20 21
42 44 46 48 52 55 57 60 63 64 61 54 49 47 49 51 53 55 57 58 58 57 55 52 47 43 38 34 31 29 27 26 25 24 22 20 19 19 18 18 17 16 16 16
43 45 46 48 51 55 58 60 62 63 58 52 47 47 49 51 53 55 57 57 58 56 53 50 45 39 34 29 25 22 20 19 17 15 14 14 15 15 15 15 14 12 11 12
44 45 46 48 51 54 57 59 61 61 57 49 45 47 48 50 52 54 56 57 58 56 53 49 42 36 30 25 20 17 13 10 8 7 9 13 14 15 15 14 12 11 10 11
42 44 45 47 50 53 56 58 60 61 56 48 44 45 47 49 51 53 55 57 58 56 53 48 42 36 28 22 18 13 8 3 3 7 11 13 15 15 15 13 11 9 9 11
42 43 45 47 49 53 55 58 60 60 55 46 43 44 45 47 49 52 55 56 56 55 52 47 41 35 30 24 19 16 13 11 11 12 13 14 14 14 13 11 11 10 10 11
42 44 46 48 50 53 55 56 58 59 54 46 41 42 43 44 46 50 53 55 55 54 51 46 41 36 32 28 24 22 20 18 17 16 14 13 13 14 13 11 11 10 11 14
41 42 44 47 50 52 54 55 56 57 54 45 40 39 40 42 43 46 49 51 52 52 50 46 41 37 33 30 27 24 22 20 19 17 15 15 14 13 13 12 12 13 16 19
40 42 44 46 49 51 52 53 54 55 53 46 39 37 37 38 39 42 45 47 48 49 48 45 42 38 34 32 29 27 25 22 20 19 18 17 16 15 15 16 17 18 20 22
39 41 43 45 47 50 51 52 52 54 53 47 39 35 33 34 35 37 39 41 42 43 43 42 41 39 36 33 30 27 25 24 22 20 19 18 18 17 17 18 19 21 24 27
39 41 42 44 46 48 49 50 51 52 52 47 40 34 31 30 30 32 34 35 37 37 38 37 37 37 36 34 31 29 27 26 24 23 21 20 20 20 21 21 23 25 28 29
39 40 42 43 45 46 47 48 49 50 51 49 41 34 30 28 28 28 28 30 31 32 32 32 32 32 32 32 32 32 30 29 28 27 26 25 24 24 25 26 27 28 29 29
40 41 42 43 44 45 45 45 46 47 49 49 44 36 30 26 25 25 25 25 26 26 27 27 27 26 27 28 28 29 28 28 28 28 28 28 28 28 28 28 28 28 27 26
40 41 42 43 44 44 44 43 43 44 46 48 44 38 31 26 22 21 20 20 21 21 22 22 22 21 21 22 23 23 23 23 23 24 25 25 25 24 24 24 25 24 24 23
41 41 42 42 43 43 42 41 41 42 44 45 44 38 31 25 21 19 18 16 16 17 17 18 17 17 17 16 17 17 18 18 19 19 19 19 19 19 19 19 20 20 20 19
41 41 41 42 43 43 41 40 40 40 41 43 43 39 32 26 21 18 16 14 13 13 13 13 13 13 12 12 11 11 11 11 12 13 13 13 13 14 14 15 15 16 16 15
Wind_Direction
320 312 301 299 305 311 310 309 308 308 308 307 307 307 306 305 304 302 301 300 299 297 294 293 291 289 288 286 284 282 279 276 273 270 267 265 264 263 262 261 261 261 260 259
325 321 313 310 317 316 313 311 311 311 312 311 310 310 309 309 307 305 304 302 300 298 296 296 295 295 294 293 292 290 288 285 280 276 272 268 265 262 261 260 260 259 259 258
332 329 323 317 324 318 316 317 316 316 316 314 313 313 313 312 309 307 306 304 303 303 303 303 302 301 300 298 297 296 294 292 290 288 284 279 274 269 265 262 259 258 257 256
337 337 324 325 324 320 320 320 318 319 318 318 317 317 317 315 312 311 310 310 311 309 307 306 305 303 301 299 297 295 292 291 290 288 287 286 283 278 273 269 264 259 256 254
341 337 324 330 329 326 325 325 323 323 323 323 322 322 321 318 316 315 315 314 312 310 308 307 305 303 301 299 296 293 291 289 287 285 285 284 283 282 279 276 272 265 259 255
341 336 329 335 330 330 329 329 328 328 326 324 324 323 323 321 320 319 316 314 312 310 308 306 304 302 300 298 295 292 290 287 285 283 283 280 279 278 277 275 272 270 264 258
341 338 333 335 331 330 329 329 327 326 326 327 328 327 327 326 323 320 317 315 313 311 308 306 304 302 300 298 296 293 290 287 284 282 281 280 278 275 273 272 269 267 264 259
340 338 333 332 330 331 331 330 330 330 331 331 331 330 329 327 325 322 320 317 314 312 310 308 306 304 301 298 296 293 290 286 284 281 279 279 276 271 269 268 264 263 263 259
338 335 332 331 332 332 332 332 333 333 334 334 334 333 331 330 328 326 323 320 317 314 313 310 308 305 302 300 296 292 289 285 282 281 278 277 274 268 265 263 260 259 259 257
333 334 334 333 333 333 333 334 335 336 337 336 336 335 334 333 332 329 326 323 321 318 316 314 310 306 303 299 295 291 288 284 281 280 278 275 270 264 261 257 255 255 255 254
334 334 334 332 331 333 335 336 337 339 339 339 338 337 337 336 334 332 330 327 325 322 319 317 313 309 305 301 296 290 286 283 282 279 276 271 265 261 256 251 248 248 249 249
333 333 332 333 333 335 337 339 340 341 342 341 339 339 339 338 336 334 333 331 330 328 325 322 319 314 309 304 298 292 286 281 279 277 273 266 260 254 245 241 238 239 242 241
331 332 333 333 334 336 339 341 343 344 344 343 342 342 341 340 340 339 338 336 336 335 333 331 329 325 318 311 305 298 290 283 278 274 267 256 245 236 229 226 225 228 232 230
332 333 334 335 336 338 341 343 345 346 346 344 344 344 344 344 344 344 344 343 342 342 340 338 337 334 329 322 314 306 296 287 277 267 251 233 220 212 207 205 207 213 218 214
332 333 335 336 338 340 342 344 347 348 348 347 346 346 347 348 348 349 349 348 349 348 347 347 347 345 342 338 331 325 314 296 271 240 212 198 192 188 186 188 193 198 199 194
332 333 336 338 339 341 343 345 348 350 350 349 348 349 351 352 353 353 353 354 355 356 357 359 360 359 359 359 359 0 6 30 135 157 164 167 170 173 175 181 187 184 178 176
332 335 337 339 341 343 344 346 349 351 352 351 351 352 354 356 358 358 360 1 1 3 6 9 13 17 20 24 32 44 59 78 102 123 139 149 157 162 165 168 169 169 168 169
333 336 338 340 342 344 345 347 350 353 354 353 352 354 357 360 1 2 5 7 9 11 14 17 22 28 33 40 50 61 70 80 93 107 122 135 143 147 150 153 156 159 158 155
333 336 338 340 342 343 346 347 350 353 355 354 354 356 359 2 4 5 8 11 14 17 21 26 30 36 42 48 55 62 69 77 86 97 110 120 128 132 136 139 140 142 144 145
332 335 338 340 341 343 345 347 350 353 355 355 355 356 359 1 5 7 10 13 17 22 26 31 36 42 47 51 56 62 70 77 83 91 100 108 115 120 126 129 131 135 138 141
330 334 337 339 341 342 344 346 349 352 356 357 355 355 358 -0 3 7 11 15 20 24 28 33 37 41 45 49 54 60 66 73 82 90 96 103 109 115 120 125 129 134 137 138
328 332 335 338 340 341 343 345 347 351 355 357 355 354 355 358 1 4 9 14 19 24 28 33 38 42 46 49 54 59 64 70 77 84 91 97 105 111 116 121 126 132 136 138
324 328 332 336 338 340 342 344 346 349 353 355 356 354 353 355 358 2 7 13 18 23 27 31 37 42 46 50 55 61 66 71 77 83 90 95 101 107 111 115 120 125 130 135
321 325 329 333 336 339 341 342 344 347 351 354 355 354 353 352 353 356 2 9 15 20 24 28 34 40 45 50 55 60 65 70 77 83 87 92 98 104 108 112 117 121 126 131
317 321 325 329 333 336 338 340 343 346 349 352 353 352 350 348 347 349 354 2 10 17 21 24 29 36 42 48 53 58 64 70 77 84 89 93 97 103 108 113 117 121 125 129
312 316 321 325 330 333 335 338 341 344 347 350 352 351 348 344 341 342 344 349 358 8 15 20 25 29 36 44 51 58 65 70 75 84 91 96 100 106 112 117 121 124 129 133
307 312 316 320 326 331 334 336 338 341 344 347 350 350 348 343 336 333 334 336 341 350 359 8 15 20 27 35 46 55 64 73 80 87 94 99 104 111 117 124 130 133 136 140
Height
5846 5844 5842 5840 5837 5833 5828 5823 5818 5812 5806 5797 5790 5783 5775 5768 5759 5750 5739 5730 5721 5712 5703 5694 5686 5679 5672 5666 5661 5657 5655 5653 5653 5652 5652 5653 5655 5657 5660 5663 5667 5670 5675 5680
5843 5840 5837 5835 5832 5828 5822 5816 5810 5804 5798 5789 5779 5771 5762 5753 5742 5731 5720 5710 5699 5688 5678 5670 5662 5655 5649 5644 5639 5635 5632 5629 5627 5626 5626 5627 5628 5631 5634 5638 5642 5647 5652 5658
5839 5836 5833 5829 5826 5821 5815 5808 5801 5794 5788 5778 5769 5759 5748 5738 5725 5712 5700 5688 5676 5666 5657 5650 5644 5639 5634 5630 5625 5622 5618 5615 5612 5610 5609 5608 5607 5608 5610 5612 5616 5622 5628 5634
5835 5832 5828 5827 5820 5814 5809 5802 5793 5786 5777 5767 5757 5746 5734 5720 5704 5691 5679 5668 5659 5651 5645 5639 5633 5627 5622 5617 5613 5609 5605 5602 5599 5597 5596 5594 5593 5592 5591 5591 5593 5597 5602 5609
5832 5829 5824 5818 5814 5807 5800 5793 5783 5774 5764 5753 5741 5730 5718 5702 5686 5674 5663 5655 5648 5641 5634 5627 5621 5615 5609 5604 5599 5595 5591 5588 5585 5583 5582 5581 5580 5578 5577 5576 5576 5578 5581 5587
5828 5824 5819 5815 5806 5799 5792 5784 5772 5762 5752 5741 5728 5715 5704 5688 5674 5663 5653 5644 5636 5629 5622 5615 5608 5601 5595 5589 5584 5579 5575 5572 5570 5568 5566 5566 5565 5564 5563 5563 5563 5564 5566 5569
5825 5819 5812 5809 5800 5794 5786 5778 5767 5756 5743 5729 5714 5699 5685 5673 5663 5653 5644 5634 5625 5617 5609 5601 5593 5585 5579 5573 5567 5562 5558 5555 5553 5551 5550 5550 5550 5549 5549 5549 5550 5551 5553 5555
5821 5815 5810 5801 5794 5786 5777 5766 5755 5743 5730 5715 5701 5686 5673 5662 5652 5642 5633 5623 5613 5604 5595 5586 5577 5569 5562 5556 5550 5545 5541 5538 5537 5535 5534 5534 5534 5535 5535 5536 5538 5540 5541 5543
5817 5813 5804 5795 5787 5778 5768 5757 5745 5732 5718 5703 5689 5676 5664 5653 5643 5632 5622 5611 5601 5590 5580 5571 5561 5551 5544 5538 5532 5528 5524 5522 5520 5519 5519 5519 5519 5521 5522 5524 5526 5529 5531 5533
5812 5806 5798 5789 5780 5772 5761 5749 5736 5722 5707 5692 5678 5666 5655 5645 5634 5623 5612 5600 5588 5576 5565 5555 5544 5535 5526 5520 5514 5509 5507 5505 5505 5504 5504 5505 5506 5508 5510 5513 5516 5519 5521 5524
5806 5799 5792 5784 5774 5764 5754 5741 5727 5713 5698 5683 5669 5658 5647 5637 5626 5614 5601 5588 5575 5562 5549 5538 5527 5517 5509 5501 5496 5492 5490 5490 5489 5489 5490 5491 5493 5496 5499 5503 5506 5510 5513 5516
5801 5793 5785 5777 5767 5756 5745 5733 5720 5705 5691 5676 5662 5651 5641 5630 5618 5605 5592 5577 5563 5549 5535 5522 5510 5500 5491 5484 5479 5476 5475 5475 5475 5476 5478 5480 5483 5486 5490 5494 5498 5503 5506 5509
5796 5788 5780 5771 5760 5749 5738 5726 5712 5697 5683 5669 5657 5646 5635 5624 5611 5598 5583 5568 5553 5538 5523 5509 5497 5486 5478 5471 5467 5464 5463 5463 5464 5466 5468 5471 5475 5479 5484 5489 5494 5498 5501 5504
5789 5782 5774 5764 5754 5743 5731 5719 5706 5692 5677 5663 5652 5642 5631 5619 5606 5592 5577 5562 5546 5530 5515 5500 5488 5477 5468 5462 5458 5455 5454 5454 5456 5458 5461 5465 5470 5476 5481 5486 5491 5495 5498 5501
5782 5775 5767 5758 5748 5738 5726 5714 5702 5688 5674 5660 5649 5638 5627 5615 5602 5589 5574 5558 5542 5526 5510 5495 5482 5472 5463 5457 5453 5450 5449 5449 5451 5454 5458 5463 5469 5475 5481 5486 5490 5495 5498 5500
5778 5770 5762 5753 5744 5733 5722 5710 5697 5684 5670 5657 5647 5636 5625 5613 5600 5587 5573 5557 5541 5524 5509 5494 5481 5470 5462 5457 5453 5450 5449 5450 5452 5455 5460 5465 5471 5477 5482 5487 5491 5495 5498 5502
5772 5765 5757 5748 5739 5729 5717 5705 5693 5680 5667 5655 5645 5635 5624 5613 5601 5589 5575 5559 5543 5527 5512 5498 5486 5476 5468 5462 5458 5456 5455 5455 5457 5461 5465 5470 5475 5480 5485 5489 5494 5497 5501 5504
5766 5758 5750 5741 5733 5723 5713 5702 5690 5678 5665 5653 5643 5634 5624 5614 5603 5591 5578 5564 5549 5534 5520 5507 5495 5486 5479 5473 5469 5466 5465 5466 5467 5469 5473 5477 5481 5485 5489 5493 5497 5500 5504 5507
5761 5754 5746 5737 5728 5719 5709 5699 5688 5676 5664 5652 5643 5633 5624 5615 5605 5594 5583 5571 5558 5544 5531 5518 5508 5499 5492 5487 5482 5480 5478 5478 5478 5480 5482 5485 5488 5492 5495 5498 5501 5505 5508 5513
5756 5749 5742 5733 5725 5715 5706 5696 5686 5675 5663 5652 5642 5634 5626 5617 5608 5599 5589 5578 5566 5554 5542 5532 5523 5514 5508 5502 5497 5494 5492 5491 5490 5491 5492 5494 5496 5499 5501 5504 5508 5511 5515 5520
5751 5745 5737 5730 5721 5712 5703 5693 5684 5674 5663 5652 5642 5634 5627 5619 5611 5603 5595 5586 5576 5565 5556 5546 5538 5530 5523 5517 5512 5508 5505 5503 5503 5502 5503 5504 5505 5507 5509 5512 5515 5519 5523 5529
5746 5740 5733 5726 5718 5709 5700 5691 5681 5672 5662 5652 5642 5634 5628 5621 5615 5607 5600 5592 5584 5575 5567 5559 5551 5544 5537 5531 5526 5522 5519 5516 5515 5514 5514 5514 5515 5517 5518 5521 5524 5528 5533 5538
5741 5735 5729 5722 5714 5706 5698 5689 5679 5670 5661 5651 5643 5635 5628 5622 5616 5610 5604 5598 5590 5583 5576 5569 5563 5557 5551 5546 5541 5536 5532 5530 5528 5526 5526 5526 5527 5528 5530 5532 5535 5539 5544 5549
5735 5729 5723 5717 5710 5703 5695 5687 5678 5669 5660 5650 5642 5634 5628 5622 5617 5612 5607 5601 5595 5590 5584 5578 5573 5568 5563 5558 5554 5550 5547 5544 5542 5540 5539 5539 5540 5541 5543 5545 5548 5551 5555 5559
5728 5723 5718 5712 5706 5699 5692 5684 5676 5668 5659 5650 5641 5633 5627 5622 5617 5613 5609 5604 5599 5595 5590 5585 5580 5576 5572 5568 5565 5562 5559 5557 5555 5553 5553 5553 5553 5554 5555 5557 5559 5562 5565 5568
5721 5717 5712 5706 5701 5694 5687 5680 5673 5665 5657 5649 5640 5632 5626 5620 5616 5613 5609 5605 5602 5598 5594 5590 5586 5582 5579 5576 5573 5571 5569 5567 5565 5564 5563 5563 5564 5564 5565 5567 5568 5571 5573 5576
5714 5710 5705 5700 5695 5688 5682 5675 5669 5662 5655 5647 5639 5631 5624 5619 5615 5612 5608 5605 5602 5599 5596 5593 5589 5586 5583 5581 5579 5577 5575 5574 5572 5572 5571 5571 5571 5572 5573 5574 5576 5577 5579 5582